EAGLEEYE (60508 NORAD) Tracking and Keplerian Element Data

This shows tracking and keplerian element data for the satellite.

Feedback or suggestion? Click here.




ElementValue
Catalog60508
NameEAGLEEYE
Epoch Orbit865
Epoch Day286.80102639
Epoch Year2024
RAAN1.5206
Inclination97.4352
Eccentricity0.0004225
Argument of Perigee303.1357
Mean Anonmoly56.9473
Mean Motion15.20956323
Decay Rate0.00024159
L11 60508U 24149AS 24286.80102639 .00024159 00000+0 10911-2 0 9994
L22 60508 97.4352 1.5206 0004225 303.1357 56.9473 15.20956323 8659



Live tracking and technical data element details for EAGLEEYE (NORAD 60508). EAGLEEYE can be tracked NOW for your location showing map with azimuth and elevation plus other details from your city location.







IsCatalogInMostPopularTable: catalog: 60508, numindb: 5
Update: records affected: 1



GetName: 60508 EAGLEEYE

Hit Count: updated at: Fri, 06 Dec 2024 10:49:08 GMT